Location: Sweet Grass
(48.9965°N, 111.9649°W)
Time: 07:58:50
(UTC+00:00)

DIWATA 2B (PO-101) - Pass Details

Date: 05 April 2023
Orbit: 581 x 594 km, 98.0° (Epoch: 03 June)

Event Time Altitude Azimuth Distance (km) Brightness Sun altitude
Exits shadow 10:20:08 26° 318° (NW) 1,162 ? -23.7°
Drops below altitude 10° 10:22:12 10° 334° (NNW) 1,912 ? -23.5°
Sets 10:24:28 0° 341° (NNW) 2,818 ? -23.2°
